World > North America > United States > Iowa > Gilman  

Gilman, IA Hourly Weather Updates

Feedback E-mail the Weather

Quick Clicks

Gilman, IA Weather Maps

°F °C°F °C
Gilman Weather Map
UTC Time: 6/16/2024, 22:46
Your Time:

Gilman, IA Regional Weather

Expires:202406162300;;138496
ASUS43 KDMX 162206
RWRIA 

WEATHER ROUNDUP FOR IOWA
NATIONAL WEATHER SERVICE DES MOINES IA
500 PM CDT SUN JUN 16 2024

NOTE: "FAIR" INDICATES FEW OR NO CLOUDS BELOW 12,000 FEET WITH NO
SIGNIFICANT WEATHER AND/OR OBSTRUCTIONS TO VISIBILITY.

* - THESE STATIONS ARE NOT NWS STATIONS...THUS NOT UNDER NWS
QUALITY CONTROL.  THEY ALSO DO NOT REPORT WEATHER SUCH 
AS PRECIPITATION OR FOG.  


IAZ047>049-059>061-072>074-084-162300-
   CENTRAL IOWA
  
CITY           SKY/WX    TMP DP  RH WIND       PRES   REMARKS
AMES           SUNNY     91  68  46 S18G29    29.71S HX  95  TC  33   
ANKENY *       SUNNY     90  66  45 SW15G23   29.73S HX  92  TC  32   
BOONE *        SUNNY     88  73  62 SW18G24   29.70S HX  96  TC  31   
CHARITON *     MOSUNNY   90  73  58 S18       29.76S HX  98  TC  32   
DES MOINES     MOSUNNY   92  66  42 SW18G28   29.74S HX  94  TC  33   
GRINNELL*      MOSUNNY   89  73  59 S16       29.77F HX  98  TC  32   
KNOXVILLE *    MOSUNNY   90  68  48 SW18      29.75S HX  93  TC  32   
MARSHALLTOWN   SUNNY     90  70  51 S18G28    29.73S HX  95  TC  32   
NEWTON *       SUNNY     88  73  62 S17G23    29.74S HX  96  TC  31   
PELLA *        MOSUNNY   89  72  57 S15G23    29.76S HX  95  TC  31   
PERRY *        PTSUNNY   91  70  49 SW16G23   29.72R HX  97  TC  33   
$$
 

SKY/WX - Weather  TMP - Temperature  DP - Dew Point  RH - Humidity
WIND - Wind Direction/Speed PRES - Barometric Pressure VSB - Visibility
WCI - Wind Chill Index E13G22 Wind - East Wind 13 mph/Gusts of 22 mph

Trending Headlines

Trending Entertainment Headlines

Gilman Radar Loop

Use the map search tool if you want to place a location marker on the radar map...

Gilman Quick Facts

National Two Day Weather Forecast


E-mail the Gilman Weather Forecast

Voice your opinion or tell us about page issues...